Time,TemperatureF,DewpointF,PressureIn,WindDirection,WindDirectionDegrees,WindSpeedMPH,WindSpeedGustMPH,Humidity,HourlyPrecipIn,Conditions,Clouds,dailyrainin,SoftwareType,DateUTC
2013-01-31 00:02:00,43.5,39.0,29.52,NNE,19,6.0,7.0,83,0.01,,,1.32,weatherlink.com 1.10,2013-01-31 05:02:00,
2013-01-31 00:16:00,40.9,38.0,29.55,NNW,328,0.0,6.0,88,0.02,,,0.00,weatherlink.com 1.10,2013-01-31 05:16:00,
2013-01-31 00:32:00,40.0,38.0,29.55,West,271,0.0,1.0,92,0.02,,,0.00,weatherlink.com 1.10,2013-01-31 05:32:00,
2013-01-31 00:47:00,39.5,37.0,29.56,NNE,13,2.0,3.0,90,0.02,,,0.00,weatherlink.com 1.10,2013-01-31 05:47:00,
2013-01-31 01:02:00,39.4,36.0,29.57,West,277,0.0,4.0,88,0.01,,,0.00,weatherlink.com 1.10,2013-01-31 06:02:00,
2013-01-31 01:17:00,38.9,36.0,29.57,WSW,247,0.0,7.0,88,0.00,,,0.00,weatherlink.com 1.10,2013-01-31 06:17:00,
2013-01-31 01:32:00,38.8,35.0,29.57,SW,214,3.0,6.0,86,0.00,,,0.00,weatherlink.com 1.10,2013-01-31 06:32:00,
2013-01-31 01:47:00,38.5,33.0,29.59,WNW,302,1.0,3.0,82,0.00,,,0.00,weatherlink.com 1.10,2013-01-31 06:47:00,
2013-01-31 02:02:00,37.9,33.0,29.60,NNW,345,4.0,5.0,82,0.00,,,0.00,weatherlink.com 1.10,2013-01-31 07:02:00,
2013-01-31 02:17:00,36.5,32.0,29.63,NW,326,4.0,8.0,82,0.00,,,0.00,weatherlink.com 1.10,2013-01-31 07:17:00,
2013-01-31 02:32:00,35.7,30.0,29.64,North,360,6.0,6.0,81,0.00,,,0.00,weatherlink.com 1.10,2013-01-31 07:32:00,
2013-01-31 02:47:00,35.7,29.0,29.65,NNW,330,4.0,5.0,75,0.00,,,0.00,weatherlink.com 1.10,2013-01-31 07:47:00,
2013-01-31 03:02:00,34.4,29.0,29.67,NNW,343,8.0,11.0,81,0.00,,,0.00,weatherlink.com 1.10,2013-01-31 08:02:00,
2013-01-31 03:17:00,33.3,28.0,29.68,NNW,343,6.0,8.0,80,0.00,,,0.00,weatherlink.com 1.10,2013-01-31 08:17:00,
2013-01-31 03:32:00,33.0,27.0,29.70,NW,316,3.0,8.0,80,0.00,,,0.00,weatherlink.com 1.10,2013-01-31 08:32:00,
2013-01-31 03:47:00,32.3,28.0,29.70,North,4,4.0,5.0,83,0.00,,,0.00,weatherlink.com 1.10,2013-01-31 08:47:00,
2013-01-31 04:02:00,32.2,26.0,29.72,NNE,12,5.0,11.0,79,0.00,,,0.00,weatherlink.com 1.10,2013-01-31 09:02:00,
2013-01-31 04:17:00,32.0,25.0,29.72,NW,305,8.0,9.0,75,0.00,,,0.00,weatherlink.com 1.10,2013-01-31 09:17:00,
2013-01-31 04:32:00,31.9,25.0,29.74,North,1,5.0,8.0,75,0.00,,,0.00,weatherlink.com 1.10,2013-01-31 09:32:00,
2013-01-31 04:47:00,31.7,24.0,29.75,NNW,347,6.0,8.0,72,0.00,,,0.00,weatherlink.com 1.10,2013-01-31 09:47:00,
2013-01-31 05:03:00,30.9,24.0,29.75,North,1,4.0,9.0,75,0.00,,,0.00,weatherlink.com 1.10,2013-01-31 10:03:00,
2013-01-31 05:18:00,29.9,25.0,29.76,North,359,6.0,8.0,81,0.00,,,0.00,weatherlink.com 1.10,2013-01-31 10:18:00,
2013-01-31 05:33:00,29.0,24.0,29.77,NNE,12,5.0,7.0,82,0.00,,,0.00,weatherlink.com 1.10,2013-01-31 10:33:00,
2013-01-31 05:48:00,29.3,24.0,29.78,North,356,4.0,6.0,80,0.00,,,0.00,weatherlink.com 1.10,2013-01-31 10:48:00,
2013-01-31 06:03:00,29.5,23.0,29.80,North,5,4.0,6.0,78,0.00,,,0.00,weatherlink.com 1.10,2013-01-31 11:03:00,
2013-01-31 06:18:00,29.7,22.0,29.80,NNE,15,5.0,7.0,74,0.00,,,0.00,weatherlink.com 1.10,2013-01-31 11:18:00,
2013-01-31 06:33:00,29.7,22.0,29.81,North,1,4.0,8.0,72,0.00,,,0.00,weatherlink.com 1.10,2013-01-31 11:33:00,
2013-01-31 06:48:00,29.5,22.0,29.82,North,354,2.0,6.0,72,0.00,,,0.00,weatherlink.com 1.10,2013-01-31 11:48:00,
2013-01-31 06:54:00,29.5,21.6,29.82,North,354,3.0,3.0,72,0.00,,,0.00,Wunderground v.1.15,2013-01-31 11:54:00,
2013-01-31 07:00:00,29.5,21.6,29.83,North,5,2.0,2.0,72,0.00,,,0.00,Wunderground v.1.15,2013-01-31 12:00:00,
2013-01-31 07:06:00,29.5,21.9,29.83,NNE,19,2.0,4.0,73,0.00,,,0.00,Wunderground v.1.15,2013-01-31 12:06:00,
2013-01-31 07:12:00,29.5,21.6,29.84,ENE,65,1.0,2.0,72,0.00,,,0.00,Wunderground v.1.15,2013-01-31 12:12:00,
2013-01-31 07:17:00,29.6,22.6,29.84,WSW,253,1.0,3.0,75,0.00,,,0.00,Wunderground v.1.15,2013-01-31 12:17:00,
2013-01-31 07:23:00,29.6,21.7,29.85,WSW,253,1.0,1.0,72,0.00,,,0.00,Wunderground v.1.15,2013-01-31 12:23:00,
2013-01-31 07:29:00,29.5,21.9,29.86,WSW,252,0.0,1.0,73,0.00,,,0.00,Wunderground v.1.15,2013-01-31 12:29:00,
2013-01-31 07:34:00,29.4,23.0,29.86,WSW,253,0.0,1.0,77,0.00,,,0.00,weatherlink.com 1.10,2013-01-31 12:34:00,
2013-01-31 07:40:00,29.2,22.9,29.86,WSW,253,0.0,1.0,77,0.00,,,0.00,Wunderground v.1.15,2013-01-31 12:40:00,
2013-01-31 07:45:00,29.2,22.9,29.86,WSW,253,0.0,5.0,77,0.00,,,0.00,Wunderground v.1.15,2013-01-31 12:45:00,
2013-01-31 07:50:00,29.0,22.4,29.86,WSW,253,0.0,5.0,76,0.00,,,0.00,Wunderground v.1.15,2013-01-31 12:50:00,
2013-01-31 07:56:00,29.0,21.7,29.87,West,281,1.0,5.0,74,0.00,,,0.00,Wunderground v.1.15,2013-01-31 12:56:00,
2013-01-31 08:02:00,29.0,22.4,29.88,West,281,1.0,1.0,76,0.00,,,0.00,Wunderground v.1.15,2013-01-31 13:02:00,
2013-01-31 08:08:00,28.8,22.2,29.87,West,281,0.0,1.0,76,0.00,,,0.00,Wunderground v.1.15,2013-01-31 13:08:00,
2013-01-31 08:14:00,28.7,23.0,29.87,SSW,193,0.0,1.0,79,0.00,,,0.00,Wunderground v.1.15,2013-01-31 13:14:00,
2013-01-31 08:34:00,28.3,23.0,29.89,SSW,193,0.0,1.0,79,0.00,,,0.00,weatherlink.com 1.10,2013-01-31 13:34:00,
2013-01-31 08:49:00,28.8,22.0,29.90,WNW,283,1.0,3.0,74,0.00,,,0.00,weatherlink.com 1.10,2013-01-31 13:49:00,
2013-01-31 09:04:00,29.0,21.0,29.91,ENE,74,1.0,1.0,73,0.00,,,0.00,weatherlink.com 1.10,2013-01-31 14:04:00,
2013-01-31 09:19:00,29.3,21.0,29.91,North,8,2.0,2.0,71,0.00,,,0.00,weatherlink.com 1.10,2013-01-31 14:19:00,
2013-01-31 09:34:00,30.2,20.0,29.92,NNW,347,1.0,2.0,67,0.00,,,0.00,weatherlink.com 1.10,2013-01-31 14:34:00,
2013-01-31 09:49:00,30.9,21.0,29.92,WNW,295,0.0,2.0,67,0.00,,,0.00,weatherlink.com 1.10,2013-01-31 14:49:00,
2013-01-31 10:04:00,31.6,21.0,29.93,NNE,12,0.0,2.0,66,0.00,,,0.00,weatherlink.com 1.10,2013-01-31 15:04:00,
2013-01-31 10:19:00,32.3,21.0,29.94,NNE,12,2.0,4.0,63,0.00,,,0.00,weatherlink.com 1.10,2013-01-31 15:19:00,
2013-01-31 10:34:00,33.1,20.0,29.95,ENE,68,1.0,4.0,59,0.00,,,0.00,weatherlink.com 1.10,2013-01-31 15:34:00,
2013-01-31 10:49:00,33.8,20.0,29.94,NNW,343,4.0,6.0,58,0.00,,,0.00,weatherlink.com 1.10,2013-01-31 15:49:00,
2013-01-31 11:04:00,34.2,20.0,29.94,North,9,4.0,8.0,57,0.00,,,0.00,weatherlink.com 1.10,2013-01-31 16:04:00,
2013-01-31 11:19:00,35.1,21.0,29.94,NNW,328,5.0,7.0,56,0.00,,,0.00,weatherlink.com 1.10,2013-01-31 16:19:00,
2013-01-31 11:34:00,35.3,20.0,29.94,North,358,6.0,-999.0,53,-99.99,,,0.00,weatherlink.com 1.10,2013-01-31 16:34:00,
2013-01-31 11:49:00,35.6,19.0,29.95,NNE,13,6.0,8.0,52,0.00,,,0.00,weatherlink.com 1.10,2013-01-31 16:49:00,
2013-01-31 12:04:00,35.6,19.0,29.95,North,356,4.0,7.0,51,0.00,,,0.00,weatherlink.com 1.10,2013-01-31 17:04:00,
2013-01-31 12:19:00,35.7,19.0,29.95,North,350,4.0,8.0,52,0.00,,,0.00,weatherlink.com 1.10,2013-01-31 17:19:00,
2013-01-31 12:34:00,36.0,19.0,29.96,North,359,7.0,10.0,50,0.00,,,0.00,weatherlink.com 1.10,2013-01-31 17:34:00,
2013-01-31 12:49:00,36.2,19.0,29.96,NNW,347,6.0,8.0,51,0.00,,,0.00,weatherlink.com 1.10,2013-01-31 17:49:00,
2013-01-31 13:04:00,36.6,20.0,29.96,NNW,328,4.0,11.0,51,0.00,,,0.00,weatherlink.com 1.10,2013-01-31 18:04:00,
2013-01-31 13:19:00,36.4,20.0,29.97,North,357,7.0,9.0,52,0.00,,,0.00,weatherlink.com 1.10,2013-01-31 18:19:00,
2013-01-31 13:34:00,36.2,19.0,29.97,NNE,16,5.0,9.0,51,0.00,,,0.00,weatherlink.com 1.10,2013-01-31 18:34:00,
2013-01-31 13:49:00,36.5,19.0,29.98,NNE,12,7.0,12.0,49,0.00,,,0.00,weatherlink.com 1.10,2013-01-31 18:49:00,
2013-01-31 14:04:00,36.3,19.0,29.99,North,9,7.0,10.0,50,0.00,,,0.00,weatherlink.com 1.10,2013-01-31 19:04:00,
2013-01-31 14:19:00,36.2,19.0,30.01,NNW,342,9.0,11.0,51,0.00,,,0.00,weatherlink.com 1.10,2013-01-31 19:19:00,
2013-01-31 14:34:00,35.8,20.0,30.00,NNW,340,7.0,8.0,52,0.00,,,0.00,weatherlink.com 1.10,2013-01-31 19:34:00,
2013-01-31 14:49:00,35.8,19.0,30.00,NNW,336,8.0,9.0,50,0.00,,,0.00,weatherlink.com 1.10,2013-01-31 19:49:00,
2013-01-31 15:04:00,35.5,19.0,30.01,North,360,7.0,11.0,51,0.00,,,0.00,weatherlink.com 1.10,2013-01-31 20:04:00,
2013-01-31 15:19:00,35.9,20.0,30.01,North,5,6.0,12.0,52,0.00,,,0.00,weatherlink.com 1.10,2013-01-31 20:19:00,
2013-01-31 15:34:00,36.3,20.0,30.02,NNW,340,6.0,12.0,52,0.00,,,0.00,weatherlink.com 1.10,2013-01-31 20:34:00,
2013-01-31 15:49:00,36.0,18.0,30.02,North,8,7.0,12.0,49,0.00,,,0.00,weatherlink.com 1.10,2013-01-31 20:49:00,
2013-01-31 16:04:00,36.2,20.0,30.02,NNW,342,5.0,8.0,52,0.00,,,0.00,weatherlink.com 1.10,2013-01-31 21:04:00,
2013-01-31 16:20:00,36.1,19.0,30.02,NNW,347,5.0,7.0,51,0.00,,,0.00,weatherlink.com 1.10,2013-01-31 21:20:00,
2013-01-31 16:35:00,36.2,19.0,30.02,North,352,4.0,7.0,50,0.00,,,0.00,weatherlink.com 1.10,2013-01-31 21:35:00,
2013-01-31 16:50:00,36.0,19.0,30.02,North,350,3.0,6.0,51,0.00,,,0.00,weatherlink.com 1.10,2013-01-31 21:50:00,
2013-01-31 17:05:00,35.9,20.0,30.02,South,173,1.0,3.0,53,0.00,,,0.00,weatherlink.com 1.10,2013-01-31 22:05:00,
2013-01-31 17:20:00,35.2,21.0,30.02,NNW,329,2.0,2.0,57,0.00,,,0.00,weatherlink.com 1.10,2013-01-31 22:20:00,
2013-01-31 17:35:00,35.4,21.0,30.03,NW,326,1.0,4.0,56,0.00,,,0.00,weatherlink.com 1.10,2013-01-31 22:35:00,
2013-01-31 17:50:00,35.1,21.0,30.02,WSW,247,1.0,2.0,56,0.00,,,0.00,weatherlink.com 1.10,2013-01-31 22:50:00,
2013-01-31 18:05:00,34.6,21.0,30.03,South,179,1.0,3.0,59,0.00,,,0.00,weatherlink.com 1.10,2013-01-31 23:05:00,
2013-01-31 18:20:00,34.1,20.0,30.03,SSW,212,2.0,2.0,56,0.00,,,0.00,weatherlink.com 1.10,2013-01-31 23:20:00,
2013-01-31 18:35:00,34.3,20.0,30.04,SW,214,2.0,2.0,56,0.00,,,0.00,weatherlink.com 1.10,2013-01-31 23:35:00,
2013-01-31 18:50:00,34.2,20.0,30.04,SW,214,0.0,2.0,56,0.00,,,0.00,weatherlink.com 1.10,2013-01-31 23:50:00,
2013-01-31 19:05:00,34.1,20.0,30.04,SSW,202,0.0,0.0,56,0.00,,,0.00,weatherlink.com 1.10,2013-02-01 00:05:00,
2013-01-31 19:20:00,34.1,19.0,30.04,SSW,203,0.0,0.0,55,0.00,,,0.00,weatherlink.com 1.10,2013-02-01 00:20:00,
2013-01-31 19:35:00,34.1,20.0,30.05,SSW,205,1.0,2.0,57,0.00,,,0.00,weatherlink.com 1.10,2013-02-01 00:35:00,
2013-01-31 19:42:00,34.1,20.4,30.05,SSW,198,1.0,4.0,57,0.00,,,0.00,Wunderground v.1.15,2013-02-01 00:42:00,
2013-01-31 19:48:00,33.9,20.3,30.05,SSW,198,1.0,4.0,57,0.00,,,0.00,Wunderground v.1.15,2013-02-01 00:48:00,
2013-01-31 19:53:00,33.9,20.7,30.05,SSW,211,1.0,2.0,58,0.00,,,0.00,Wunderground v.1.15,2013-02-01 00:53:00,
2013-01-31 19:58:00,33.7,21.3,30.05,SSW,211,1.0,2.0,60,0.00,,,0.00,Wunderground v.1.15,2013-02-01 00:58:00,
2013-01-31 20:04:00,33.6,21.2,30.05,SSW,198,1.0,2.0,60,0.00,,,0.00,Wunderground v.1.15,2013-02-01 01:04:00,
2013-01-31 20:09:00,33.5,20.7,30.05,SSW,198,1.0,2.0,59,0.00,,,0.00,Wunderground v.1.15,2013-02-01 01:09:00,
2013-01-31 20:14:00,33.5,20.7,30.05,SSW,195,1.0,1.0,59,0.00,,,0.00,Wunderground v.1.15,2013-02-01 01:14:00,
2013-01-31 20:19:00,33.5,21.1,30.05,SSW,197,1.0,1.0,60,0.00,,,0.00,Wunderground v.1.15,2013-02-01 01:19:00,
2013-01-31 20:24:00,33.4,21.4,30.05,SW,217,1.0,2.0,61,0.00,,,0.00,Wunderground v.1.15,2013-02-01 01:24:00,
2013-01-31 20:30:00,33.4,21.4,30.05,SSW,198,1.0,1.0,61,0.00,,,0.00,Wunderground v.1.15,2013-02-01 01:30:00,
2013-01-31 20:35:00,33.3,21.3,30.06,SSW,198,1.0,1.0,61,0.00,,,0.00,Wunderground v.1.15,2013-02-01 01:35:00,
2013-01-31 20:41:00,33.1,22.2,30.06,NW,324,1.0,2.0,64,0.00,,,0.00,Wunderground v.1.15,2013-02-01 01:41:00,
2013-01-31 20:47:00,32.2,22.5,30.07,NW,323,0.0,2.0,67,0.00,,,0.00,Wunderground v.1.15,2013-02-01 01:47:00,
2013-01-31 21:06:00,32.1,21.0,30.06,SW,217,0.0,2.0,64,0.00,,,0.00,weatherlink.com 1.10,2013-02-01 02:06:00,
2013-01-31 21:21:00,31.1,22.0,30.06,South,188,1.0,1.0,68,0.00,,,0.00,weatherlink.com 1.10,2013-02-01 02:21:00,
2013-01-31 21:36:00,31.0,21.0,30.07,SSW,211,0.0,1.0,66,0.00,,,0.00,weatherlink.com 1.10,2013-02-01 02:36:00,
2013-01-31 21:51:00,31.8,22.0,30.06,South,183,0.0,3.0,66,0.00,,,0.00,weatherlink.com 1.10,2013-02-01 02:51:00,
2013-01-31 22:06:00,32.6,22.0,30.06,North,5,1.0,6.0,65,0.00,,,0.00,weatherlink.com 1.10,2013-02-01 03:06:00,
2013-01-31 22:21:00,34.4,22.0,30.05,South,191,2.0,6.0,62,0.00,,,0.00,weatherlink.com 1.10,2013-02-01 03:21:00,
2013-01-31 22:36:00,35.3,23.0,30.05,NNW,343,1.0,6.0,60,0.00,,,0.00,weatherlink.com 1.10,2013-02-01 03:36:00,
2013-01-31 22:51:00,35.8,22.0,30.05,WNW,294,5.0,6.0,58,0.00,,,0.00,weatherlink.com 1.10,2013-02-01 03:51:00,
2013-01-31 23:06:00,36.3,23.0,30.04,SW,214,1.0,5.0,58,0.00,,,0.00,weatherlink.com 1.10,2013-02-01 04:06:00,
2013-01-31 23:21:00,36.5,22.0,30.05,SE,131,2.0,8.0,57,0.00,,,0.00,weatherlink.com 1.10,2013-02-01 04:21:00,
2013-01-31 23:36:00,36.4,23.0,30.05,ENE,58,4.0,10.0,59,0.00,,,0.00,weatherlink.com 1.10,2013-02-01 04:36:00,
2013-01-31 23:51:00,36.5,24.0,30.05,South,184,0.0,8.0,60,0.00,,,0.00,weatherlink.com 1.10,2013-02-01 04:51:00,